User: anonymous   Login
Location: Cabeza de los Veneras
(40.2000°N, 5.2000°W)
Time: 17:56:10
(UTC+00:00)
Language:

CSL-04 Rocket - Orbit

View from above orbital plane
View from above orbital plane
View from above satellite
View from above satellite

Ground track
Ground track

The orbit data is extracted from the following two-line orbital elements,

1 25732U 99025C   24177.16932022  .00000094  00000-0  67000-4 0  9990
2 25732  98.7506 222.1793 0036693 334.4492  94.2809 14.17975610300071
Epoch (UTC): 25 June 2024 04:03:49
Eccentricity: 0.0036693
inclination: 98.7506°
perigee height: 806 km
apogee height: 858 km
right ascension of ascending node: 222.1793°
argument of perigee: 334.4492°
revolutions per day: 14.17975610
mean anomaly at epoch: 94.2809°
orbit number at epoch: 30007

The dashed part of the orbit path shows where the satellite is in the earth's shadow,  

DLR